Time,TemperatureF,DewpointF,PressureIn,WindDirection,WindDirectionDegrees,WindSpeedMPH,WindSpeedGustMPH,Humidity,HourlyPrecipIn,Conditions,Clouds,dailyrainin,SoftwareType,DateUTC
2013-01-10 00:09:00,35.9,27.0,30.39,WNW,298,11.0,22.0,71,0.00,,,0.00,weatherlink.com 1.10,2013-01-10 05:09:00,
2013-01-10 00:24:00,36.0,27.0,30.40,West,271,8.0,20.0,70,0.00,,,0.00,weatherlink.com 1.10,2013-01-10 05:24:00,
2013-01-10 00:54:00,35.9,27.0,30.41,West,271,14.0,19.0,70,0.00,,,0.00,weatherlink.com 1.10,2013-01-10 05:54:00,
2013-01-10 01:09:00,35.8,27.0,30.42,West,270,9.0,19.0,70,0.00,,,0.00,weatherlink.com 1.10,2013-01-10 06:09:00,
2013-01-10 01:24:00,35.7,27.0,30.41,WSW,257,8.0,18.0,70,0.00,,,0.00,weatherlink.com 1.10,2013-01-10 06:24:00,
2013-01-10 01:39:00,35.5,27.0,30.42,West,281,11.0,20.0,71,0.00,,,0.00,weatherlink.com 1.10,2013-01-10 06:39:00,
2013-01-10 01:54:00,35.3,27.0,30.43,NW,315,7.0,18.0,72,0.00,,,0.00,weatherlink.com 1.10,2013-01-10 06:54:00,
2013-01-10 02:09:00,35.3,27.0,30.42,WNW,283,5.0,17.0,72,0.00,,,0.00,weatherlink.com 1.10,2013-01-10 07:09:00,
2013-01-10 02:24:00,35.1,27.0,30.43,West,273,7.0,14.0,72,0.00,,,0.00,weatherlink.com 1.10,2013-01-10 07:24:00,
2013-01-10 02:39:00,34.7,27.0,30.43,West,274,8.0,14.0,74,0.00,,,0.00,weatherlink.com 1.10,2013-01-10 07:39:00,
2013-01-10 02:54:00,34.4,27.0,30.43,WNW,288,8.0,14.0,75,0.00,,,0.00,weatherlink.com 1.10,2013-01-10 07:54:00,
2013-01-10 03:09:00,34.8,28.0,30.42,West,279,11.0,17.0,76,0.00,,,0.00,weatherlink.com 1.10,2013-01-10 08:09:00,
2013-01-10 03:24:00,34.8,29.0,30.41,WNW,302,14.0,22.0,79,0.00,,,0.00,weatherlink.com 1.10,2013-01-10 08:24:00,
2013-01-10 03:39:00,34.8,29.0,30.41,NW,315,17.0,21.0,78,0.00,,,0.00,weatherlink.com 1.10,2013-01-10 08:39:00,
2013-01-10 03:54:00,34.6,29.0,30.42,NW,311,12.0,18.0,81,0.00,,,0.00,weatherlink.com 1.10,2013-01-10 08:54:00,
2013-01-10 04:09:00,34.4,29.0,30.43,WNW,302,7.0,13.0,80,0.00,,,0.00,weatherlink.com 1.10,2013-01-10 09:09:00,
2013-01-10 04:24:00,34.3,28.0,30.44,NW,308,6.0,10.0,78,0.00,,,0.00,weatherlink.com 1.10,2013-01-10 09:24:00,
2013-01-10 04:39:00,33.5,27.0,30.45,West,267,3.0,6.0,78,0.00,,,0.00,weatherlink.com 1.10,2013-01-10 09:39:00,
2013-01-10 04:54:00,32.9,27.0,30.46,West,259,4.0,4.0,79,0.00,,,0.00,weatherlink.com 1.10,2013-01-10 09:54:00,
2013-01-10 05:09:00,30.9,26.0,30.47,SW,220,4.0,5.0,82,0.00,,,0.00,weatherlink.com 1.10,2013-01-10 10:09:00,
2013-01-10 05:25:00,30.2,26.0,30.49,SSW,209,4.0,7.0,84,0.00,,,0.00,weatherlink.com 1.10,2013-01-10 10:25:00,
2013-01-10 05:39:00,30.4,26.0,30.48,SSW,202,5.0,6.0,84,0.00,,,0.00,weatherlink.com 1.10,2013-01-10 10:39:00,
2013-01-10 05:54:00,30.2,26.0,30.50,SSW,209,3.0,7.0,84,0.00,,,0.00,weatherlink.com 1.10,2013-01-10 10:54:00,
2013-01-10 06:09:00,30.3,26.0,30.51,SW,230,2.0,5.0,84,0.00,,,0.00,weatherlink.com 1.10,2013-01-10 11:09:00,
2013-01-10 06:24:00,30.0,26.0,30.52,SW,214,2.0,4.0,84,0.00,,,0.00,weatherlink.com 1.10,2013-01-10 11:24:00,
2013-01-10 06:39:00,29.7,26.0,30.52,SW,219,0.0,3.0,85,0.00,,,0.00,weatherlink.com 1.10,2013-01-10 11:39:00,
2013-01-10 06:54:00,29.8,26.0,30.53,SW,219,1.0,3.0,85,0.00,,,0.00,weatherlink.com 1.10,2013-01-10 11:54:00,
2013-01-10 07:09:00,29.2,25.0,30.54,SW,219,2.0,3.0,85,0.00,,,0.00,weatherlink.com 1.10,2013-01-10 12:09:00,
2013-01-10 07:24:00,28.7,25.0,30.55,SSW,196,3.0,3.0,87,0.00,,,0.00,weatherlink.com 1.10,2013-01-10 12:24:00,
2013-01-10 07:39:00,28.8,25.0,30.55,WSW,240,2.0,4.0,86,0.00,,,0.00,weatherlink.com 1.10,2013-01-10 12:39:00,
2013-01-10 07:54:00,28.6,25.0,30.55,SSW,206,1.0,3.0,87,0.00,,,0.00,weatherlink.com 1.10,2013-01-10 12:54:00,
2013-01-10 08:10:00,28.7,26.0,30.56,SSW,205,1.0,2.0,88,0.00,,,0.00,weatherlink.com 1.10,2013-01-10 13:10:00,
2013-01-10 08:25:00,27.8,24.0,30.57,SSW,213,1.0,3.0,87,0.00,,,0.00,weatherlink.com 1.10,2013-01-10 13:25:00,
2013-01-10 08:40:00,27.3,25.0,30.56,ESE,119,3.0,4.0,89,0.00,,,0.00,weatherlink.com 1.10,2013-01-10 13:40:00,
2013-01-10 08:55:00,28.0,26.0,30.55,ESE,119,2.0,2.0,90,0.00,,,0.00,weatherlink.com 1.10,2013-01-10 13:55:00,
2013-01-10 09:10:00,29.4,27.0,30.56,SE,124,2.0,2.0,90,0.00,,,0.00,weatherlink.com 1.10,2013-01-10 14:10:00,
2013-01-10 09:25:00,29.5,26.0,30.56,SE,124,1.0,2.0,88,0.00,,,0.00,weatherlink.com 1.10,2013-01-10 14:25:00,
2013-01-10 09:40:00,31.3,28.0,30.56,SE,124,1.0,2.0,87,0.00,,,0.00,weatherlink.com 1.10,2013-01-10 14:40:00,
2013-01-10 09:55:00,32.2,28.0,30.57,SE,124,0.0,2.0,85,0.00,,,0.00,weatherlink.com 1.10,2013-01-10 14:55:00,
2013-01-10 10:10:00,34.1,29.0,30.57,ESE,123,1.0,2.0,81,0.00,,,0.00,weatherlink.com 1.10,2013-01-10 15:10:00,
2013-01-10 10:25:00,34.9,29.0,30.57,WSW,242,1.0,3.0,79,0.00,,,0.00,weatherlink.com 1.10,2013-01-10 15:25:00,
2013-01-10 10:40:00,36.0,29.0,30.57,SW,216,4.0,7.0,76,0.00,,,0.00,weatherlink.com 1.10,2013-01-10 15:40:00,
2013-01-10 10:55:00,36.5,29.0,30.57,West,267,4.0,8.0,74,0.00,,,0.00,weatherlink.com 1.10,2013-01-10 15:55:00,
2013-01-10 11:10:00,37.3,29.0,30.56,SSW,194,1.0,4.0,73,0.00,,,0.00,weatherlink.com 1.10,2013-01-10 16:10:00,
2013-01-10 11:25:00,38.2,29.0,30.55,West,259,2.0,7.0,69,0.00,,,0.00,weatherlink.com 1.10,2013-01-10 16:25:00,
2013-01-10 11:40:00,37.7,28.0,30.54,SSW,207,5.0,6.0,69,0.00,,,0.00,weatherlink.com 1.10,2013-01-10 16:40:00,
2013-01-10 11:55:00,38.2,30.0,30.54,ENE,69,5.0,8.0,71,0.00,,,0.00,weatherlink.com 1.10,2013-01-10 16:55:00,
2013-01-10 12:10:00,36.7,30.0,30.53,NNE,19,5.0,6.0,78,0.00,,,0.00,weatherlink.com 1.10,2013-01-10 17:10:00,
2013-01-10 12:25:00,35.9,30.0,30.52,NNE,26,5.0,7.0,79,0.00,,,0.00,weatherlink.com 1.10,2013-01-10 17:25:00,
2013-01-10 12:40:00,36.2,31.0,30.52,NNE,29,3.0,7.0,80,0.00,,,0.00,weatherlink.com 1.10,2013-01-10 17:40:00,
2013-01-10 12:55:00,36.6,31.0,30.51,NW,306,3.0,4.0,79,0.00,,,0.00,weatherlink.com 1.10,2013-01-10 17:55:00,
2013-01-10 13:10:00,36.9,30.0,30.50,WNW,290,1.0,4.0,76,0.00,,,0.00,weatherlink.com 1.10,2013-01-10 18:10:00,
2013-01-10 13:25:00,38.6,29.0,30.49,SE,138,4.0,7.0,69,0.00,,,0.00,weatherlink.com 1.10,2013-01-10 18:25:00,
2013-01-10 13:40:00,37.9,30.0,30.49,SE,136,6.0,11.0,72,0.00,,,0.00,weatherlink.com 1.10,2013-01-10 18:40:00,
2013-01-10 13:55:00,37.0,29.0,30.48,SSE,151,7.0,13.0,73,0.00,,,0.00,weatherlink.com 1.10,2013-01-10 18:55:00,
2013-01-10 14:10:00,37.3,29.0,30.48,SSE,147,7.0,12.0,73,0.00,,,0.00,weatherlink.com 1.10,2013-01-10 19:10:00,
2013-01-10 14:25:00,37.0,29.0,30.48,SE,146,10.0,14.0,72,0.00,,,0.00,weatherlink.com 1.10,2013-01-10 19:25:00,
2013-01-10 14:40:00,37.3,29.0,30.48,SE,146,3.0,10.0,72,0.00,,,0.00,weatherlink.com 1.10,2013-01-10 19:40:00,
2013-01-10 14:55:00,37.2,29.0,30.48,SE,138,10.0,14.0,71,0.00,,,0.00,weatherlink.com 1.10,2013-01-10 19:55:00,
2013-01-10 15:10:00,37.1,30.0,30.48,SSE,166,3.0,15.0,74,0.00,,,0.00,weatherlink.com 1.10,2013-01-10 20:10:00,
2013-01-10 15:40:00,36.9,30.0,30.48,SSE,161,7.0,15.0,76,0.00,,,0.00,weatherlink.com 1.10,2013-01-10 20:40:00,
2013-01-10 15:55:00,36.7,30.0,30.47,SE,140,9.0,12.0,76,0.00,,,0.00,weatherlink.com 1.10,2013-01-10 20:55:00,
2013-01-10 16:10:00,36.5,30.0,30.46,ESE,119,2.0,9.0,78,0.00,,,0.00,weatherlink.com 1.10,2013-01-10 21:10:00,
2013-01-10 16:25:00,36.2,31.0,30.45,SSE,147,5.0,8.0,80,0.00,,,0.00,weatherlink.com 1.10,2013-01-10 21:25:00,
2013-01-10 16:40:00,36.0,31.0,30.44,SE,143,5.0,9.0,82,0.00,,,0.00,weatherlink.com 1.10,2013-01-10 21:40:00,
2013-01-10 16:55:00,35.7,31.0,30.44,ESE,115,5.0,8.0,83,0.00,,,0.00,weatherlink.com 1.10,2013-01-10 21:55:00,
2013-01-10 17:11:00,35.5,31.0,30.43,ESE,122,8.0,11.0,85,0.00,,,0.00,weatherlink.com 1.10,2013-01-10 22:11:00,
2013-01-10 17:26:00,35.3,32.0,30.43,SSE,152,4.0,8.0,86,0.00,,,0.00,weatherlink.com 1.10,2013-01-10 22:26:00,
2013-01-10 17:41:00,35.3,32.0,30.43,SSE,165,5.0,11.0,86,0.00,,,0.00,weatherlink.com 1.10,2013-01-10 22:41:00,
2013-01-10 17:56:00,35.5,32.0,30.42,SSE,155,3.0,11.0,86,0.00,,,0.00,weatherlink.com 1.10,2013-01-10 22:56:00,
2013-01-10 18:11:00,35.6,32.0,30.43,SE,144,6.0,12.0,86,0.00,,,0.00,weatherlink.com 1.10,2013-01-10 23:11:00,
2013-01-10 18:26:00,35.9,32.0,30.42,SE,126,7.0,11.0,85,0.00,,,0.00,weatherlink.com 1.10,2013-01-10 23:26:00,
2013-01-10 18:41:00,36.1,32.0,30.42,SSE,165,5.0,11.0,85,0.00,,,0.00,weatherlink.com 1.10,2013-01-10 23:41:00,
2013-01-10 18:56:00,36.2,32.0,30.42,SE,134,8.0,13.0,85,0.00,,,0.00,weatherlink.com 1.10,2013-01-10 23:56:00,
2013-01-10 19:11:00,36.3,32.0,30.41,SE,144,6.0,14.0,85,0.00,,,0.00,weatherlink.com 1.10,2013-01-11 00:11:00,
2013-01-10 19:26:00,36.5,32.0,30.40,SE,125,7.0,12.0,84,0.00,,,0.00,weatherlink.com 1.10,2013-01-11 00:26:00,
2013-01-10 19:41:00,36.4,32.0,30.40,SSE,158,8.0,14.0,85,0.00,,,0.00,weatherlink.com 1.10,2013-01-11 00:41:00,
2013-01-10 19:56:00,36.5,33.0,30.39,SSE,150,5.0,14.0,86,0.00,,,0.00,weatherlink.com 1.10,2013-01-11 00:56:00,
2013-01-10 20:11:00,36.5,32.0,30.38,ESE,109,10.0,14.0,85,0.00,,,0.00,weatherlink.com 1.10,2013-01-11 01:11:00,
2013-01-10 20:26:00,36.5,32.0,30.39,ESE,121,13.0,14.0,85,0.00,,,0.00,weatherlink.com 1.10,2013-01-11 01:26:00,
2013-01-10 20:41:00,36.7,33.0,30.38,SSE,153,8.0,14.0,85,0.00,,,0.00,weatherlink.com 1.10,2013-01-11 01:41:00,
2013-01-10 20:56:00,36.8,33.0,30.38,SE,129,7.0,12.0,86,0.00,,,0.00,weatherlink.com 1.10,2013-01-11 01:56:00,
2013-01-10 21:11:00,36.9,33.0,30.37,SSE,157,5.0,11.0,86,0.00,,,0.00,weatherlink.com 1.10,2013-01-11 02:11:00,
2013-01-10 21:26:00,37.0,34.0,30.36,SSE,152,10.0,11.0,87,0.00,,,0.00,weatherlink.com 1.10,2013-01-11 02:26:00,
2013-01-10 21:41:00,37.3,34.0,30.35,SSE,168,10.0,19.0,87,0.00,,,0.00,weatherlink.com 1.10,2013-01-11 02:41:00,
2013-01-10 21:56:00,37.3,34.0,30.34,SSE,167,9.0,17.0,88,0.00,,,0.00,weatherlink.com 1.10,2013-01-11 02:56:00,
2013-01-10 22:11:00,37.1,34.0,30.33,SE,144,6.0,21.0,89,0.00,,,0.00,weatherlink.com 1.10,2013-01-11 03:11:00,
2013-01-10 22:26:00,37.1,34.0,30.31,SSE,151,7.0,17.0,89,0.00,,,0.00,weatherlink.com 1.10,2013-01-11 03:26:00,
2013-01-10 22:41:00,37.1,34.0,30.30,SSE,151,9.0,22.0,88,0.00,,,0.00,weatherlink.com 1.10,2013-01-11 03:41:00,
2013-01-10 23:11:00,37.3,34.0,30.28,SE,139,7.0,20.0,87,0.00,,,0.00,weatherlink.com 1.10,2013-01-11 04:11:00,
2013-01-10 23:26:00,37.4,34.0,30.27,SE,131,6.0,18.0,87,0.00,,,0.00,weatherlink.com 1.10,2013-01-11 04:26:00,
2013-01-10 23:41:00,37.5,34.0,30.26,ESE,123,16.0,19.0,87,0.00,,,0.00,weatherlink.com 1.10,2013-01-11 04:41:00,
2013-01-10 23:57:00,37.3,34.0,30.25,SE,133,12.0,20.0,87,0.00,,,0.00,weatherlink.com 1.10,2013-01-11 04:57:00,